Time,TemperatureF,DewpointF,PressureIn,WindDirection,WindDirectionDegrees,WindSpeedMPH,WindSpeedGustMPH,Humidity,HourlyPrecipIn,Conditions,Clouds,dailyrainin,SoftwareType,DateUTC
2013-06-24 00:00:00,75.6,68.3,29.99,West,264,0.0,2.0,78,0.00,,,0.00,Wunderground v.1.15,2013-06-24 04:00:00,
2013-06-24 00:30:00,75.3,68.0,29.99,West,274,1.0,1.0,78,0.00,,,0.00,Wunderground v.1.15,2013-06-24 04:30:00,
2013-06-24 01:00:00,74.9,67.9,29.99,West,273,1.0,1.0,79,0.00,,,0.00,Wunderground v.1.15,2013-06-24 05:00:00,
2013-06-24 01:30:00,74.3,67.7,29.99,West,277,1.0,1.0,80,0.00,,,0.00,Wunderground v.1.15,2013-06-24 05:30:00,
2013-06-24 02:00:00,73.8,67.6,29.98,WNW,288,1.0,1.0,81,0.00,,,0.00,Wunderground v.1.15,2013-06-24 06:00:00,
2013-06-24 02:30:00,73.1,67.6,29.97,ESE,112,0.0,0.0,83,0.00,,,0.00,Wunderground v.1.15,2013-06-24 06:30:00,
2013-06-24 03:00:00,72.6,67.1,29.98,South,176,0.0,0.0,83,0.00,,,0.00,Wunderground v.1.15,2013-06-24 07:00:00,
2013-06-24 04:30:00,71.3,66.9,29.96,East,98,0.0,0.0,86,0.00,,,0.00,Wunderground v.1.15,2013-06-24 08:30:00,
2013-06-24 05:00:00,71.1,66.7,29.96,North,8,0.0,0.0,86,0.00,,,0.00,Wunderground v.1.15,2013-06-24 09:00:00,
2013-06-24 05:30:00,70.8,66.4,29.96,ESE,107,0.0,0.0,86,0.00,,,0.00,Wunderground v.1.15,2013-06-24 09:30:00,
2013-06-24 06:00:00,71.0,66.6,29.95,ENE,65,0.0,0.0,86,0.00,,,0.00,Wunderground v.1.15,2013-06-24 10:00:00,
2013-06-24 06:30:00,71.5,67.1,29.95,West,269,1.0,1.0,86,0.00,,,0.00,Wunderground v.1.15,2013-06-24 10:30:00,
2013-06-24 07:00:00,72.7,67.9,29.95,NNW,342,0.0,0.0,85,0.00,,,0.00,Wunderground v.1.15,2013-06-24 11:00:00,
2013-06-24 07:30:00,74.6,69.1,29.96,WNW,293,1.0,1.0,83,0.00,,,0.00,Wunderground v.1.15,2013-06-24 11:30:00,
2013-06-24 08:00:00,77.8,70.8,29.95,NNE,25,0.0,1.0,79,0.00,,,0.00,Wunderground v.1.15,2013-06-24 12:00:00,
2013-06-24 08:30:00,81.2,72.1,29.95,WSW,257,1.0,1.0,74,0.00,,,0.00,Wunderground v.1.15,2013-06-24 12:30:00,
2013-06-24 09:00:00,82.4,71.6,29.95,NNW,329,3.0,3.0,70,0.00,,,0.00,Wunderground v.1.15,2013-06-24 13:00:00,
2013-06-24 09:30:00,84.0,71.9,29.94,WSW,257,3.0,3.0,67,0.00,,,0.00,Wunderground v.1.15,2013-06-24 13:30:00,
2013-06-24 10:00:00,85.6,72.0,29.93,NNW,347,2.0,2.0,64,0.00,,,0.00,Wunderground v.1.15,2013-06-24 14:00:00,
2013-06-24 10:30:00,87.5,72.9,29.93,SW,232,3.0,3.0,62,0.00,,,0.00,Wunderground v.1.15,2013-06-24 14:30:00,
2013-06-24 11:00:00,88.8,72.6,29.93,WSW,238,3.0,3.0,59,0.00,,,0.00,Wunderground v.1.15,2013-06-24 15:00:00,
2013-06-24 11:30:00,89.5,72.8,29.92,WSW,245,3.0,3.0,58,0.00,,,0.00,Wunderground v.1.15,2013-06-24 15:30:00,
2013-06-24 12:00:00,91.4,71.9,29.92,West,280,3.0,3.0,53,0.00,,,0.00,Wunderground v.1.15,2013-06-24 16:00:00,
2013-06-24 13:30:00,92.5,70.6,29.90,West,271,4.0,4.0,49,0.00,,,0.00,Wunderground v.1.15,2013-06-24 17:30:00,
2013-06-24 14:00:00,93.2,71.2,29.90,NW,309,4.0,4.0,49,0.00,,,0.00,Wunderground v.1.15,2013-06-24 18:00:00,
2013-06-24 14:30:00,93.9,71.2,29.89,West,266,4.0,4.0,48,0.00,,,0.00,Wunderground v.1.15,2013-06-24 18:30:00,
2013-06-24 15:00:00,94.7,71.3,29.88,West,277,3.0,4.0,47,0.00,,,0.00,Wunderground v.1.15,2013-06-24 19:00:00,
2013-06-24 15:30:00,93.4,70.8,29.87,North,349,3.0,3.0,48,0.00,,,0.00,Wunderground v.1.15,2013-06-24 19:30:00,
2013-06-24 16:00:00,94.2,71.5,29.86,West,274,4.0,4.0,48,0.00,,,0.00,Wunderground v.1.15,2013-06-24 20:00:00,
2013-06-24 16:30:00,95.3,72.5,29.85,West,276,2.0,3.0,48,0.00,,,0.00,Wunderground v.1.15,2013-06-24 20:30:00,
2013-06-24 17:00:00,93.0,72.8,29.84,West,276,3.0,4.0,52,0.00,,,0.00,Wunderground v.1.15,2013-06-24 21:00:00,
2013-06-24 17:30:00,92.8,72.0,29.85,WSW,246,3.0,3.0,51,0.00,,,0.00,Wunderground v.1.15,2013-06-24 21:30:00,
2013-06-24 18:00:00,91.1,72.1,29.84,West,270,2.0,2.0,54,0.00,,,0.00,Wunderground v.1.15,2013-06-24 22:00:00,
2013-06-24 18:30:00,89.8,72.0,29.85,WSW,253,1.0,1.0,56,0.00,,,0.00,Wunderground v.1.15,2013-06-24 22:30:00,
2013-06-24 19:00:00,89.1,72.4,29.85,WNW,288,1.0,1.0,58,0.00,,,0.00,Wunderground v.1.15,2013-06-24 23:00:00,
2013-06-24 19:30:00,87.9,72.8,29.85,WSW,257,1.0,2.0,61,0.00,,,0.00,Wunderground v.1.15,2013-06-24 23:30:00,
2013-06-24 20:00:00,81.9,69.4,29.89,WSW,248,2.0,7.0,66,0.00,,,0.00,Wunderground v.1.15,2013-06-25 00:00:00,
2013-06-24 20:30:00,75.6,69.7,29.91,West,262,0.0,1.0,82,0.05,,,0.06,Wunderground v.1.15,2013-06-25 00:30:00,
2013-06-24 21:00:00,73.5,68.7,29.92,SSW,207,0.0,0.0,85,0.00,,,0.07,Wunderground v.1.15,2013-06-25 01:00:00,
2013-06-24 21:30:00,73.5,69.1,29.94,WSW,257,0.0,0.0,86,0.00,,,0.07,Wunderground v.1.15,2013-06-25 01:30:00,
2013-06-24 22:00:00,73.7,68.9,29.94,NE,40,0.0,1.0,85,0.06,,,0.10,Wunderground v.1.15,2013-06-25 02:00:00,
2013-06-24 22:30:00,72.6,68.2,29.92,NE,40,0.0,0.0,86,0.05,,,0.13,Wunderground v.1.15,2013-06-25 02:30:00,
2013-06-24 23:00:00,72.4,68.0,29.91,WSW,258,0.0,0.0,86,0.00,,,0.14,Wunderground v.1.15,2013-06-25 03:00:00,
2013-06-24 23:30:00,71.9,67.5,29.90,West,259,0.0,0.0,86,0.00,,,0.14,Wunderground v.1.15,2013-06-25 03:30:00,